TimeEDT,TemperatureF,Dew PointF,Humidity,Sea Level PressureIn,VisibilityMPH,Wind Direction,Wind SpeedMPH,Gust SpeedMPH,PrecipitationIn,Events,Conditions,WindDirDegrees,DateUTC
12:53 AM,63.0,48.9,60,29.82,10.0,NNW,5.8,-,N/A,,Clear,330,2013-05-16 04:53:00
1:53 AM,62.1,46.9,58,29.82,10.0,Calm,Calm,-,N/A,,Clear,0,2013-05-16 05:53:00
2:53 AM,57.9,48.0,70,29.84,10.0,SSW,3.5,-,N/A,,Clear,210,2013-05-16 06:53:00
3:53 AM,54.0,46.9,77,29.85,10.0,Calm,Calm,-,N/A,,Clear,0,2013-05-16 07:53:00
4:53 AM,54.0,46.9,77,29.86,10.0,Calm,Calm,-,N/A,,Clear,0,2013-05-16 08:53:00
5:53 AM,53.1,46.9,80,29.85,10.0,Calm,Calm,-,N/A,,Clear,0,2013-05-16 09:53:00
6:53 AM,54.0,46.9,77,29.87,10.0,Calm,Calm,-,N/A,,Clear,0,2013-05-16 10:53:00
7:53 AM,57.9,48.0,70,29.91,10.0,SW,3.5,-,N/A,,Clear,230,2013-05-16 11:53:00
8:53 AM,66.9,46.9,49,29.91,10.0,North,4.6,-,N/A,,Clear,350,2013-05-16 12:53:00
9:53 AM,72.0,46.9,41,29.92,10.0,NNW,4.6,-,N/A,,Clear,340,2013-05-16 13:53:00
10:53 AM,75.0,43.0,32,29.93,10.0,Calm,Calm,-,N/A,,Clear,0,2013-05-16 14:53:00
11:53 AM,73.9,39.9,29,29.93,10.0,Calm,Calm,-,N/A,,Clear,0,2013-05-16 15:53:00
12:53 PM,78.1,44.1,30,29.91,10.0,Variable,3.5,-,N/A,,Clear,0,2013-05-16 16:53:00
1:53 PM,80.1,42.1,26,29.91,10.0,Variable,3.5,-,N/A,,Clear,0,2013-05-16 17:53:00
2:53 PM,80.1,39.9,24,29.91,10.0,Calm,Calm,-,N/A,,Clear,0,2013-05-16 18:53:00
3:53 PM,82.9,39.9,22,29.90,10.0,NW,5.8,-,N/A,,Clear,310,2013-05-16 19:53:00
4:53 PM,82.9,39.0,21,29.89,10.0,Calm,Calm,-,N/A,,Clear,0,2013-05-16 20:53:00
5:53 PM,82.9,37.9,20,29.89,10.0,SSW,3.5,-,N/A,,Clear,200,2013-05-16 21:53:00
6:53 PM,81.0,42.1,25,29.89,10.0,SSW,5.8,-,N/A,,Clear,200,2013-05-16 22:53:00
7:53 PM,79.0,43.0,28,29.90,10.0,SSW,4.6,-,N/A,,Clear,210,2013-05-16 23:53:00
8:53 PM,73.0,44.1,35,29.91,10.0,Calm,Calm,-,N/A,,Scattered Clouds,0,2013-05-17 00:53:00
10:53 PM,63.0,48.0,58,29.96,10.0,North,6.9,-,N/A,,Mostly Cloudy,360,2013-05-17 02:53:00
11:53 PM,64.0,46.0,52,29.96,10.0,Calm,Calm,-,N/A,,Partly Cloudy,0,2013-05-17 03:53:00